owner,sensor,date,latitude,longitude,air_temperature,qcFlag 
COMPS,ioos:station:USF.COMPS:FHP:1,2019-11-01T00:54:00,28.1530,-82.8010,27.76,11111222 
COMPS,ioos:station:USF.COMPS:FHP:1,2019-11-01T01:54:00,28.1530,-82.8010,27.71,11111222 
COMPS,ioos:station:USF.COMPS:FHP:1,2019-11-01T02:54:00,28.1530,-82.8010,27.7,11111222 
COMPS,ioos:station:USF.COMPS:FHP:1,2019-11-01T03:54:00,28.1530,-82.8010,27.56,11111222 
COMPS,ioos:station:USF.COMPS:FHP:1,2019-11-01T04:54:00,28.1530,-82.8010,27.63,11111222 
COMPS,ioos:station:USF.COMPS:FHP:1,2019-11-01T05:54:00,28.1530,-82.8010,26.17,11111222 
COMPS,ioos:station:USF.COMPS:FHP:1,2019-11-01T06:54:00,28.1530,-82.8010,24.5,11111222 
COMPS,ioos:station:USF.COMPS:FHP:1,2019-11-01T07:54:00,28.1530,-82.8010,22.8,11111222 
COMPS,ioos:station:USF.COMPS:FHP:1,2019-11-01T08:54:00,28.1530,-82.8010,22.78,11111222 
COMPS,ioos:station:USF.COMPS:FHP:1,2019-11-01T09:54:00,28.1530,-82.8010,22.1,11111222 
COMPS,ioos:station:USF.COMPS:FHP:1,2019-11-01T10:54:00,28.1530,-82.8010,21.24,11111222 
COMPS,ioos:station:USF.COMPS:FHP:1,2019-11-01T11:54:00,28.1530,-82.8010,20.07,11111222 
COMPS,ioos:station:USF.COMPS:FHP:1,2019-11-01T12:54:00,28.1530,-82.8010,20.13,11111222 
COMPS,ioos:station:USF.COMPS:FHP:1,2019-11-01T13:54:00,28.1530,-82.8010,20.75,11111222 
COMPS,ioos:station:USF.COMPS:FHP:1,2019-11-01T14:54:00,28.1530,-82.8010,22.01,11111222 
COMPS,ioos:station:USF.COMPS:FHP:1,2019-11-01T15:54:00,28.1530,-82.8010,23.64,11111222 
COMPS,ioos:station:USF.COMPS:FHP:1,2019-11-01T16:54:00,28.1530,-82.8010,23.67,11111222 
COMPS,ioos:station:USF.COMPS:FHP:1,2019-11-01T17:54:00,28.1530,-82.8010,23.72,11111222 
COMPS,ioos:station:USF.COMPS:FHP:1,2019-11-01T18:54:00,28.1530,-82.8010,23.72,11111222 
COMPS,ioos:station:USF.COMPS:FHP:1,2019-11-01T19:54:00,28.1530,-82.8010,24.27,11111222 
COMPS,ioos:station:USF.COMPS:FHP:1,2019-11-01T20:54:00,28.1530,-82.8010,24.39,11111222 
COMPS,ioos:station:USF.COMPS:FHP:1,2019-11-01T21:54:00,28.1530,-82.8010,24.4,11111222 
COMPS,ioos:station:USF.COMPS:FHP:1,2019-11-01T22:54:00,28.1530,-82.8010,24.76,11111222 
COMPS,ioos:station:USF.COMPS:FHP:1,2019-11-01T23:54:00,28.1530,-82.8010,24.98,11111222 
COMPS,ioos:station:USF.COMPS:FHP:1,2019-11-02T00:54:00,28.1530,-82.8010,23.62,11111222 
COMPS,ioos:station:USF.COMPS:FHP:1,2019-11-02T01:54:00,28.1530,-82.8010,22.46,11111222 
COMPS,ioos:station:USF.COMPS:FHP:1,2019-11-02T02:54:00,28.1530,-82.8010,21.55,11111222 
COMPS,ioos:station:USF.COMPS:FHP:1,2019-11-02T03:54:00,28.1530,-82.8010,20.84,11111222 
COMPS,ioos:station:USF.COMPS:FHP:1,2019-11-02T04:54:00,28.1530,-82.8010,20.58,11111222 
COMPS,ioos:station:USF.COMPS:FHP:1,2019-11-02T05:54:00,28.1530,-82.8010,20.57,11111222 
COMPS,ioos:station:USF.COMPS:FHP:1,2019-11-02T06:54:00,28.1530,-82.8010,20.52,11111222 
COMPS,ioos:station:USF.COMPS:FHP:1,2019-11-02T07:54:00,28.1530,-82.8010,20.73,11111222 
COMPS,ioos:station:USF.COMPS:FHP:1,2019-11-02T08:54:00,28.1530,-82.8010,21.04,11111222 
COMPS,ioos:station:USF.COMPS:FHP:1,2019-11-02T09:54:00,28.1530,-82.8010,21.01,11111222 
COMPS,ioos:station:USF.COMPS:FHP:1,2019-11-02T10:54:00,28.1530,-82.8010,20.76,11111222 
COMPS,ioos:station:USF.COMPS:FHP:1,2019-11-02T11:54:00,28.1530,-82.8010,20.83,11111222 
COMPS,ioos:station:USF.COMPS:FHP:1,2019-11-02T12:54:00,28.1530,-82.8010,20.98,11111222 
COMPS,ioos:station:USF.COMPS:FHP:1,2019-11-02T13:54:00,28.1530,-82.8010,21.42,11111222 
COMPS,ioos:station:USF.COMPS:FHP:1,2019-11-02T14:54:00,28.1530,-82.8010,21.98,11111222 
COMPS,ioos:station:USF.COMPS:FHP:1,2019-11-02T15:54:00,28.1530,-82.8010,22.13,11111222 
COMPS,ioos:station:USF.COMPS:FHP:1,2019-11-02T16:54:00,28.1530,-82.8010,22.28,11111222 
COMPS,ioos:station:USF.COMPS:FHP:1,2019-11-02T17:54:00,28.1530,-82.8010,22.3,11111222 
COMPS,ioos:station:USF.COMPS:FHP:1,2019-11-02T18:54:00,28.1530,-82.8010,22.62,11111222 
COMPS,ioos:station:USF.COMPS:FHP:1,2019-11-02T19:54:00,28.1530,-82.8010,22.42,11111222 
COMPS,ioos:station:USF.COMPS:FHP:1,2019-11-02T20:54:00,28.1530,-82.8010,22.01,11111222 
COMPS,ioos:station:USF.COMPS:FHP:1,2019-11-02T21:54:00,28.1530,-82.8010,22.48,11111222 
COMPS,ioos:station:USF.COMPS:FHP:1,2019-11-02T22:54:00,28.1530,-82.8010,22.88,11111222 
COMPS,ioos:station:USF.COMPS:FHP:1,2019-11-02T23:54:00,28.1530,-82.8010,22.34,11111222 
COMPS,ioos:station:USF.COMPS:FHP:1,2019-11-03T00:54:00,28.1530,-82.8010,22.01,11111222 
COMPS,ioos:station:USF.COMPS:FHP:1,2019-11-03T01:54:00,28.1530,-82.8010,21.5,11111222 
COMPS,ioos:station:USF.COMPS:FHP:1,2019-11-03T02:54:00,28.1530,-82.8010,20.34,11111222 
COMPS,ioos:station:USF.COMPS:FHP:1,2019-11-03T03:54:00,28.1530,-82.8010,19.61,11111222 
COMPS,ioos:station:USF.COMPS:FHP:1,2019-11-03T04:54:00,28.1530,-82.8010,19.62,11111222 
COMPS,ioos:station:USF.COMPS:FHP:1,2019-11-03T05:54:00,28.1530,-82.8010,19.61,11111222 
COMPS,ioos:station:USF.COMPS:FHP:1,2019-11-03T06:54:00,28.1530,-82.8010,19.59,11111222 
COMPS,ioos:station:USF.COMPS:FHP:1,2019-11-03T07:54:00,28.1530,-82.8010,19.38,11111222 
COMPS,ioos:station:USF.COMPS:FHP:1,2019-11-03T08:54:00,28.1530,-82.8010,19.24,11111222 
COMPS,ioos:station:USF.COMPS:FHP:1,2019-11-03T09:54:00,28.1530,-82.8010,18.97,11111222 
COMPS,ioos:station:USF.COMPS:FHP:1,2019-11-03T10:54:00,28.1530,-82.8010,18.67,11111222 
COMPS,ioos:station:USF.COMPS:FHP:1,2019-11-03T11:54:00,28.1530,-82.8010,18.35,11111222 
COMPS,ioos:station:USF.COMPS:FHP:1,2019-11-03T12:54:00,28.1530,-82.8010,18.22,11111222 
COMPS,ioos:station:USF.COMPS:FHP:1,2019-11-03T13:54:00,28.1530,-82.8010,18.68,11111222 
COMPS,ioos:station:USF.COMPS:FHP:1,2019-11-03T14:54:00,28.1530,-82.8010,20.05,11111222 
COMPS,ioos:station:USF.COMPS:FHP:1,2019-11-03T15:54:00,28.1530,-82.8010,21.2,11111222 
COMPS,ioos:station:USF.COMPS:FHP:1,2019-11-03T16:54:00,28.1530,-82.8010,23.08,11111222 
COMPS,ioos:station:USF.COMPS:FHP:1,2019-11-03T17:54:00,28.1530,-82.8010,24.04,11111222 
COMPS,ioos:station:USF.COMPS:FHP:1,2019-11-03T18:54:00,28.1530,-82.8010,24.42,11111222 
COMPS,ioos:station:USF.COMPS:FHP:1,2019-11-03T19:54:00,28.1530,-82.8010,24.52,11111222 
COMPS,ioos:station:USF.COMPS:FHP:1,2019-11-03T20:54:00,28.1530,-82.8010,24.63,11111222 
COMPS,ioos:station:USF.COMPS:FHP:1,2019-11-03T21:54:00,28.1530,-82.8010,24.75,11111222 
COMPS,ioos:station:USF.COMPS:FHP:1,2019-11-03T22:54:00,28.1530,-82.8010,24.48,11111222 
COMPS,ioos:station:USF.COMPS:FHP:1,2019-11-03T23:54:00,28.1530,-82.8010,23.91,11111222 
COMPS,ioos:station:USF.COMPS:FHP:1,2019-11-04T00:54:00,28.1530,-82.8010,23.35,11111222 
COMPS,ioos:station:USF.COMPS:FHP:1,2019-11-04T01:54:00,28.1530,-82.8010,23.0,11111222 
COMPS,ioos:station:USF.COMPS:FHP:1,2019-11-04T02:54:00,28.1530,-82.8010,22.32,11111222 
COMPS,ioos:station:USF.COMPS:FHP:1,2019-11-04T03:54:00,28.1530,-82.8010,21.62,11111222 
COMPS,ioos:station:USF.COMPS:FHP:1,2019-11-04T04:54:00,28.1530,-82.8010,21.05,11111222 
COMPS,ioos:station:USF.COMPS:FHP:1,2019-11-04T05:54:00,28.1530,-82.8010,20.59,11111222 
COMPS,ioos:station:USF.COMPS:FHP:1,2019-11-04T14:54:00,28.1530,-82.8010,23.95,11111222 
COMPS,ioos:station:USF.COMPS:FHP:1,2019-11-04T15:54:00,28.1530,-82.8010,25.7,11111222 
COMPS,ioos:station:USF.COMPS:FHP:1,2019-11-04T16:54:00,28.1530,-82.8010,27.12,11111222 
COMPS,ioos:station:USF.COMPS:FHP:1,2019-11-04T17:54:00,28.1530,-82.8010,27.94,11111222 
COMPS,ioos:station:USF.COMPS:FHP:1,2019-11-04T18:54:00,28.1530,-82.8010,27.85,11111222 
COMPS,ioos:station:USF.COMPS:FHP:1,2019-11-04T19:54:00,28.1530,-82.8010,28.03,11111222 
COMPS,ioos:station:USF.COMPS:FHP:1,2019-11-04T20:54:00,28.1530,-82.8010,27.57,11111222 
COMPS,ioos:station:USF.COMPS:FHP:1,2019-11-04T21:54:00,28.1530,-82.8010,26.94,11111222 
COMPS,ioos:station:USF.COMPS:FHP:1,2019-11-04T22:54:00,28.1530,-82.8010,26.28,11111222 
COMPS,ioos:station:USF.COMPS:FHP:1,2019-11-04T23:54:00,28.1530,-82.8010,25.73,11111222 
COMPS,ioos:station:USF.COMPS:FHP:1,2019-11-05T00:54:00,28.1530,-82.8010,25.45,11111222 
COMPS,ioos:station:USF.COMPS:FHP:1,2019-11-05T01:54:00,28.1530,-82.8010,24.89,11111222 
COMPS,ioos:station:USF.COMPS:FHP:1,2019-11-05T02:54:00,28.1530,-82.8010,24.55,11111222 
COMPS,ioos:station:USF.COMPS:FHP:1,2019-11-05T03:54:00,28.1530,-82.8010,24.21,11111222 
COMPS,ioos:station:USF.COMPS:FHP:1,2019-11-05T04:54:00,28.1530,-82.8010,23.94,11111222 
COMPS,ioos:station:USF.COMPS:FHP:1,2019-11-05T05:54:00,28.1530,-82.8010,23.8,11111222 
COMPS,ioos:station:USF.COMPS:FHP:1,2019-11-05T06:54:00,28.1530,-82.8010,23.8,11111222 
COMPS,ioos:station:USF.COMPS:FHP:1,2019-11-05T07:54:00,28.1530,-82.8010,23.52,11111222 
COMPS,ioos:station:USF.COMPS:FHP:1,2019-11-05T08:54:00,28.1530,-82.8010,23.43,11111222 
COMPS,ioos:station:USF.COMPS:FHP:1,2019-11-05T09:54:00,28.1530,-82.8010,23.41,11111222 
COMPS,ioos:station:USF.COMPS:FHP:1,2019-11-05T10:54:00,28.1530,-82.8010,23.34,11111222 
COMPS,ioos:station:USF.COMPS:FHP:1,2019-11-05T11:54:00,28.1530,-82.8010,23.34,11111222 
COMPS,ioos:station:USF.COMPS:FHP:1,2019-11-05T12:54:00,28.1530,-82.8010,24.15,11111222 
COMPS,ioos:station:USF.COMPS:FHP:1,2019-11-05T13:54:00,28.1530,-82.8010,24.81,11111222 
COMPS,ioos:station:USF.COMPS:FHP:1,2019-11-05T14:54:00,28.1530,-82.8010,25.45,11111222 
COMPS,ioos:station:USF.COMPS:FHP:1,2019-11-05T15:54:00,28.1530,-82.8010,26.14,11111222 
COMPS,ioos:station:USF.COMPS:FHP:1,2019-11-05T16:54:00,28.1530,-82.8010,26.14,11111222 
COMPS,ioos:station:USF.COMPS:FHP:1,2019-11-05T17:54:00,28.1530,-82.8010,26.15,11111222 
COMPS,ioos:station:USF.COMPS:FHP:1,2019-11-05T18:54:00,28.1530,-82.8010,26.69,11111222 
COMPS,ioos:station:USF.COMPS:FHP:1,2019-11-05T19:54:00,28.1530,-82.8010,25.22,11111222 
COMPS,ioos:station:USF.COMPS:FHP:1,2019-11-05T20:54:00,28.1530,-82.8010,25.38,11111222 
COMPS,ioos:station:USF.COMPS:FHP:1,2019-11-05T21:54:00,28.1530,-82.8010,25.52,11111222 
COMPS,ioos:station:USF.COMPS:FHP:1,2019-11-05T22:54:00,28.1530,-82.8010,25.12,11111222 
COMPS,ioos:station:USF.COMPS:FHP:1,2019-11-05T23:54:00,28.1530,-82.8010,25.17,11111222 
COMPS,ioos:station:USF.COMPS:FHP:1,2019-11-06T00:54:00,28.1530,-82.8010,25.03,11111222 
COMPS,ioos:station:USF.COMPS:FHP:1,2019-11-06T01:54:00,28.1530,-82.8010,25.02,11111222 
COMPS,ioos:station:USF.COMPS:FHP:1,2019-11-06T02:54:00,28.1530,-82.8010,24.58,11111222 
COMPS,ioos:station:USF.COMPS:FHP:1,2019-11-06T03:54:00,28.1530,-82.8010,24.22,11111222 
COMPS,ioos:station:USF.COMPS:FHP:1,2019-11-06T04:54:00,28.1530,-82.8010,23.94,11111222 
COMPS,ioos:station:USF.COMPS:FHP:1,2019-11-06T05:54:00,28.1530,-82.8010,23.94,11111222 
COMPS,ioos:station:USF.COMPS:FHP:1,2019-11-06T06:54:00,28.1530,-82.8010,23.71,11111222 
COMPS,ioos:station:USF.COMPS:FHP:1,2019-11-06T07:54:00,28.1530,-82.8010,23.01,11111222 
COMPS,ioos:station:USF.COMPS:FHP:1,2019-11-06T08:54:00,28.1530,-82.8010,22.87,11111222 
COMPS,ioos:station:USF.COMPS:FHP:1,2019-11-06T09:54:00,28.1530,-82.8010,22.38,11111222 
COMPS,ioos:station:USF.COMPS:FHP:1,2019-11-06T10:54:00,28.1530,-82.8010,22.23,11111222 
COMPS,ioos:station:USF.COMPS:FHP:1,2019-11-06T11:54:00,28.1530,-82.8010,21.89,11111222 
COMPS,ioos:station:USF.COMPS:FHP:1,2019-11-06T12:54:00,28.1530,-82.8010,21.95,11111222 
COMPS,ioos:station:USF.COMPS:FHP:1,2019-11-06T13:54:00,28.1530,-82.8010,22.98,11111222 
COMPS,ioos:station:USF.COMPS:FHP:1,2019-11-06T14:54:00,28.1530,-82.8010,24.24,11111222 
COMPS,ioos:station:USF.COMPS:FHP:1,2019-11-06T15:54:00,28.1530,-82.8010,24.89,11111222 
COMPS,ioos:station:USF.COMPS:FHP:1,2019-11-06T16:54:00,28.1530,-82.8010,25.02,11111222 
COMPS,ioos:station:USF.COMPS:FHP:1,2019-11-06T17:54:00,28.1530,-82.8010,26.23,11111222 
COMPS,ioos:station:USF.COMPS:FHP:1,2019-11-06T18:54:00,28.1530,-82.8010,26.53,11111222 
COMPS,ioos:station:USF.COMPS:FHP:1,2019-11-06T19:54:00,28.1530,-82.8010,27.26,11111222 
COMPS,ioos:station:USF.COMPS:FHP:1,2019-11-06T20:54:00,28.1530,-82.8010,27.94,11111222 
COMPS,ioos:station:USF.COMPS:FHP:1,2019-11-06T21:54:00,28.1530,-82.8010,27.85,11111222 
COMPS,ioos:station:USF.COMPS:FHP:1,2019-11-06T22:54:00,28.1530,-82.8010,27.06,11111222 
COMPS,ioos:station:USF.COMPS:FHP:1,2019-11-06T23:54:00,28.1530,-82.8010,25.04,11111222 
COMPS,ioos:station:USF.COMPS:FHP:1,2019-11-07T00:54:00,28.1530,-82.8010,24.43,11111222 
COMPS,ioos:station:USF.COMPS:FHP:1,2019-11-07T01:54:00,28.1530,-82.8010,24.08,11111222 
COMPS,ioos:station:USF.COMPS:FHP:1,2019-11-07T02:54:00,28.1530,-82.8010,23.83,11111222 
COMPS,ioos:station:USF.COMPS:FHP:1,2019-11-07T03:54:00,28.1530,-82.8010,23.45,11111222 
COMPS,ioos:station:USF.COMPS:FHP:1,2019-11-07T04:54:00,28.1530,-82.8010,23.02,11111222 
COMPS,ioos:station:USF.COMPS:FHP:1,2019-11-07T05:54:00,28.1530,-82.8010,22.67,11111222 
COMPS,ioos:station:USF.COMPS:FHP:1,2019-11-07T06:54:00,28.1530,-82.8010,22.46,11111222 
COMPS,ioos:station:USF.COMPS:FHP:1,2019-11-07T07:54:00,28.1530,-82.8010,22.22,11111222 
COMPS,ioos:station:USF.COMPS:FHP:1,2019-11-07T08:54:00,28.1530,-82.8010,22.07,11111222 
COMPS,ioos:station:USF.COMPS:FHP:1,2019-11-07T09:54:00,28.1530,-82.8010,21.97,11111222 
COMPS,ioos:station:USF.COMPS:FHP:1,2019-11-07T10:54:00,28.1530,-82.8010,22.05,11111222 
COMPS,ioos:station:USF.COMPS:FHP:1,2019-11-07T11:54:00,28.1530,-82.8010,22.13,11111222 
COMPS,ioos:station:USF.COMPS:FHP:1,2019-11-07T12:54:00,28.1530,-82.8010,22.44,11111222 
COMPS,ioos:station:USF.COMPS:FHP:1,2019-11-07T13:54:00,28.1530,-82.8010,23.69,11111222 
COMPS,ioos:station:USF.COMPS:FHP:1,2019-11-07T14:54:00,28.1530,-82.8010,25.44,11111222 
COMPS,ioos:station:USF.COMPS:FHP:1,2019-11-07T15:54:00,28.1530,-82.8010,26.82,11111222 
COMPS,ioos:station:USF.COMPS:FHP:1,2019-11-07T16:54:00,28.1530,-82.8010,25.39,11111222 
COMPS,ioos:station:USF.COMPS:FHP:1,2019-11-07T17:54:00,28.1530,-82.8010,25.32,11111222 
COMPS,ioos:station:USF.COMPS:FHP:1,2019-11-07T18:54:00,28.1530,-82.8010,25.74,11111222 
COMPS,ioos:station:USF.COMPS:FHP:1,2019-11-07T19:54:00,28.1530,-82.8010,25.84,11111222 
COMPS,ioos:station:USF.COMPS:FHP:1,2019-11-07T20:54:00,28.1530,-82.8010,25.93,11111222 
COMPS,ioos:station:USF.COMPS:FHP:1,2019-11-07T21:54:00,28.1530,-82.8010,25.9,11111222 
COMPS,ioos:station:USF.COMPS:FHP:1,2019-11-07T22:54:00,28.1530,-82.8010,25.57,11111222 
COMPS,ioos:station:USF.COMPS:FHP:1,2019-11-07T23:54:00,28.1530,-82.8010,25.67,11111222 
COMPS,ioos:station:USF.COMPS:FHP:1,2019-11-08T00:54:00,28.1530,-82.8010,25.66,11111222 
COMPS,ioos:station:USF.COMPS:FHP:1,2019-11-08T01:54:00,28.1530,-82.8010,25.51,11111222 
COMPS,ioos:station:USF.COMPS:FHP:1,2019-11-08T02:54:00,28.1530,-82.8010,25.29,11111222 
COMPS,ioos:station:USF.COMPS:FHP:1,2019-11-08T03:54:00,28.1530,-82.8010,25.13,11111222 
COMPS,ioos:station:USF.COMPS:FHP:1,2019-11-08T04:54:00,28.1530,-82.8010,24.45,11111222 
COMPS,ioos:station:USF.COMPS:FHP:1,2019-11-08T05:54:00,28.1530,-82.8010,24.09,11111222 
COMPS,ioos:station:USF.COMPS:FHP:1,2019-11-08T06:54:00,28.1530,-82.8010,24.08,11111222 
COMPS,ioos:station:USF.COMPS:FHP:1,2019-11-08T07:54:00,28.1530,-82.8010,23.99,11111222 
COMPS,ioos:station:USF.COMPS:FHP:1,2019-11-08T08:54:00,28.1530,-82.8010,23.42,11111222 
COMPS,ioos:station:USF.COMPS:FHP:1,2019-11-08T09:54:00,28.1530,-82.8010,23.21,11111222 
COMPS,ioos:station:USF.COMPS:FHP:1,2019-11-08T10:54:00,28.1530,-82.8010,23.03,11111222 
COMPS,ioos:station:USF.COMPS:FHP:1,2019-11-08T11:54:00,28.1530,-82.8010,23.03,11111222 
COMPS,ioos:station:USF.COMPS:FHP:1,2019-11-08T12:54:00,28.1530,-82.8010,23.57,11111222 
COMPS,ioos:station:USF.COMPS:FHP:1,2019-11-08T13:54:00,28.1530,-82.8010,24.55,11111222 
COMPS,ioos:station:USF.COMPS:FHP:1,2019-11-08T14:54:00,28.1530,-82.8010,24.59,11111222 
COMPS,ioos:station:USF.COMPS:FHP:1,2019-11-08T15:54:00,28.1530,-82.8010,24.68,11111222 
COMPS,ioos:station:USF.COMPS:FHP:1,2019-11-08T16:54:00,28.1530,-82.8010,24.63,11111222 
COMPS,ioos:station:USF.COMPS:FHP:1,2019-11-08T17:54:00,28.1530,-82.8010,24.32,11111222 
COMPS,ioos:station:USF.COMPS:FHP:1,2019-11-08T18:54:00,28.1530,-82.8010,24.37,11111222 
COMPS,ioos:station:USF.COMPS:FHP:1,2019-11-08T19:54:00,28.1530,-82.8010,24.06,11111222 
COMPS,ioos:station:USF.COMPS:FHP:1,2019-11-08T20:54:00,28.1530,-82.8010,24.49,11111222 
COMPS,ioos:station:USF.COMPS:FHP:1,2019-11-08T21:54:00,28.1530,-82.8010,23.79,11111222 
COMPS,ioos:station:USF.COMPS:FHP:1,2019-11-08T22:54:00,28.1530,-82.8010,21.83,11111222 
COMPS,ioos:station:USF.COMPS:FHP:1,2019-11-08T23:54:00,28.1530,-82.8010,20.83,11111222 
COMPS,ioos:station:USF.COMPS:FHP:1,2019-11-09T00:54:00,28.1530,-82.8010,20.36,11111222 
COMPS,ioos:station:USF.COMPS:FHP:1,2019-11-09T01:54:00,28.1530,-82.8010,19.95,11111222 
COMPS,ioos:station:USF.COMPS:FHP:1,2019-11-09T02:54:00,28.1530,-82.8010,19.61,11111222 
COMPS,ioos:station:USF.COMPS:FHP:1,2019-11-09T03:54:00,28.1530,-82.8010,19.37,11111222 
COMPS,ioos:station:USF.COMPS:FHP:1,2019-11-09T04:54:00,28.1530,-82.8010,19.06,11111222 
COMPS,ioos:station:USF.COMPS:FHP:1,2019-11-09T05:54:00,28.1530,-82.8010,18.54,11111222 
COMPS,ioos:station:USF.COMPS:FHP:1,2019-11-09T06:54:00,28.1530,-82.8010,17.75,11111222 
COMPS,ioos:station:USF.COMPS:FHP:1,2019-11-09T07:54:00,28.1530,-82.8010,17.4,11111222 
COMPS,ioos:station:USF.COMPS:FHP:1,2019-11-09T08:54:00,28.1530,-82.8010,17.35,11111222 
COMPS,ioos:station:USF.COMPS:FHP:1,2019-11-09T09:54:00,28.1530,-82.8010,17.36,11111222 
COMPS,ioos:station:USF.COMPS:FHP:1,2019-11-09T10:54:00,28.1530,-82.8010,17.55,11111222 
COMPS,ioos:station:USF.COMPS:FHP:1,2019-11-09T11:54:00,28.1530,-82.8010,17.46,11111222 
COMPS,ioos:station:USF.COMPS:FHP:1,2019-11-09T12:54:00,28.1530,-82.8010,17.71,11111222 
COMPS,ioos:station:USF.COMPS:FHP:1,2019-11-09T13:54:00,28.1530,-82.8010,18.11,11111222 
COMPS,ioos:station:USF.COMPS:FHP:1,2019-11-09T14:54:00,28.1530,-82.8010,18.71,11111222 
COMPS,ioos:station:USF.COMPS:FHP:1,2019-11-09T15:54:00,28.1530,-82.8010,19.72,11111222 
COMPS,ioos:station:USF.COMPS:FHP:1,2019-11-09T16:54:00,28.1530,-82.8010,20.93,11111222 
COMPS,ioos:station:USF.COMPS:FHP:1,2019-11-09T17:54:00,28.1530,-82.8010,21.51,11111222 
COMPS,ioos:station:USF.COMPS:FHP:1,2019-11-09T18:54:00,28.1530,-82.8010,22.44,11111222 
COMPS,ioos:station:USF.COMPS:FHP:1,2019-11-09T19:54:00,28.1530,-82.8010,23.08,11111222 
COMPS,ioos:station:USF.COMPS:FHP:1,2019-11-09T20:54:00,28.1530,-82.8010,23.29,11111222 
COMPS,ioos:station:USF.COMPS:FHP:1,2019-11-09T21:54:00,28.1530,-82.8010,23.13,11111222 
COMPS,ioos:station:USF.COMPS:FHP:1,2019-11-09T22:54:00,28.1530,-82.8010,22.28,11111222 
COMPS,ioos:station:USF.COMPS:FHP:1,2019-11-09T23:54:00,28.1530,-82.8010,20.98,11111222 
COMPS,ioos:station:USF.COMPS:FHP:1,2019-11-10T00:54:00,28.1530,-82.8010,19.85,11111222 
COMPS,ioos:station:USF.COMPS:FHP:1,2019-11-10T01:54:00,28.1530,-82.8010,18.85,11111222 
COMPS,ioos:station:USF.COMPS:FHP:1,2019-11-10T02:54:00,28.1530,-82.8010,18.08,11111222 
COMPS,ioos:station:USF.COMPS:FHP:1,2019-11-10T03:54:00,28.1530,-82.8010,17.16,11111222 
COMPS,ioos:station:USF.COMPS:FHP:1,2019-11-10T04:54:00,28.1530,-82.8010,16.44,11111222 
COMPS,ioos:station:USF.COMPS:FHP:1,2019-11-10T05:54:00,28.1530,-82.8010,15.77,11111222 
COMPS,ioos:station:USF.COMPS:FHP:1,2019-11-10T06:54:00,28.1530,-82.8010,15.18,11111222 
COMPS,ioos:station:USF.COMPS:FHP:1,2019-11-10T07:54:00,28.1530,-82.8010,14.58,11111222 
COMPS,ioos:station:USF.COMPS:FHP:1,2019-11-10T08:54:00,28.1530,-82.8010,14.49,11111222 
COMPS,ioos:station:USF.COMPS:FHP:1,2019-11-10T09:54:00,28.1530,-82.8010,14.25,11111222 
COMPS,ioos:station:USF.COMPS:FHP:1,2019-11-10T10:54:00,28.1530,-82.8010,14.2,11111222 
COMPS,ioos:station:USF.COMPS:FHP:1,2019-11-10T11:54:00,28.1530,-82.8010,14.62,11111222 
COMPS,ioos:station:USF.COMPS:FHP:1,2019-11-10T12:54:00,28.1530,-82.8010,15.17,11111222 
COMPS,ioos:station:USF.COMPS:FHP:1,2019-11-10T13:54:00,28.1530,-82.8010,17.08,11111222 
COMPS,ioos:station:USF.COMPS:FHP:1,2019-11-10T14:54:00,28.1530,-82.8010,19.54,11111222 
COMPS,ioos:station:USF.COMPS:FHP:1,2019-11-10T15:54:00,28.1530,-82.8010,21.22,11111222 
COMPS,ioos:station:USF.COMPS:FHP:1,2019-11-10T16:54:00,28.1530,-82.8010,22.73,11111222 
COMPS,ioos:station:USF.COMPS:FHP:1,2019-11-10T17:54:00,28.1530,-82.8010,24.46,11111222 
COMPS,ioos:station:USF.COMPS:FHP:1,2019-11-10T18:54:00,28.1530,-82.8010,24.56,11111222 
COMPS,ioos:station:USF.COMPS:FHP:1,2019-11-10T19:54:00,28.1530,-82.8010,22.99,11111222 
COMPS,ioos:station:USF.COMPS:FHP:1,2019-11-10T20:54:00,28.1530,-82.8010,22.66,11111222 
COMPS,ioos:station:USF.COMPS:FHP:1,2019-11-10T21:54:00,28.1530,-82.8010,22.6,11111222 
COMPS,ioos:station:USF.COMPS:FHP:1,2019-11-10T22:54:00,28.1530,-82.8010,22.09,11111222 
COMPS,ioos:station:USF.COMPS:FHP:1,2019-11-10T23:54:00,28.1530,-82.8010,21.33,11111222 
COMPS,ioos:station:USF.COMPS:FHP:1,2019-11-11T00:54:00,28.1530,-82.8010,20.78,11111222 
COMPS,ioos:station:USF.COMPS:FHP:1,2019-11-11T01:54:00,28.1530,-82.8010,20.43,11111222 
COMPS,ioos:station:USF.COMPS:FHP:1,2019-11-11T02:54:00,28.1530,-82.8010,19.57,11111222 
COMPS,ioos:station:USF.COMPS:FHP:1,2019-11-11T03:54:00,28.1530,-82.8010,19.22,11111222 
COMPS,ioos:station:USF.COMPS:FHP:1,2019-11-11T04:54:00,28.1530,-82.8010,18.71,11111222 
COMPS,ioos:station:USF.COMPS:FHP:1,2019-11-11T05:54:00,28.1530,-82.8010,18.4,11111222 
COMPS,ioos:station:USF.COMPS:FHP:1,2019-11-11T06:54:00,28.1530,-82.8010,17.86,11111222 
COMPS,ioos:station:USF.COMPS:FHP:1,2019-11-11T07:54:00,28.1530,-82.8010,17.47,11111222 
COMPS,ioos:station:USF.COMPS:FHP:1,2019-11-11T08:54:00,28.1530,-82.8010,17.19,11111222 
COMPS,ioos:station:USF.COMPS:FHP:1,2019-11-11T09:54:00,28.1530,-82.8010,17.05,11111222 
COMPS,ioos:station:USF.COMPS:FHP:1,2019-11-11T10:54:00,28.1530,-82.8010,17.13,11111222 
COMPS,ioos:station:USF.COMPS:FHP:1,2019-11-11T11:54:00,28.1530,-82.8010,17.28,11111222 
COMPS,ioos:station:USF.COMPS:FHP:1,2019-11-11T12:54:00,28.1530,-82.8010,18.39,11111222 
COMPS,ioos:station:USF.COMPS:FHP:1,2019-11-11T13:54:00,28.1530,-82.8010,20.11,11111222 
COMPS,ioos:station:USF.COMPS:FHP:1,2019-11-11T14:54:00,28.1530,-82.8010,22.16,11111222 
COMPS,ioos:station:USF.COMPS:FHP:1,2019-11-11T15:54:00,28.1530,-82.8010,23.97,11111222 
COMPS,ioos:station:USF.COMPS:FHP:1,2019-11-11T16:54:00,28.1530,-82.8010,25.43,11111222 
COMPS,ioos:station:USF.COMPS:FHP:1,2019-11-11T17:54:00,28.1530,-82.8010,25.51,11111222 
COMPS,ioos:station:USF.COMPS:FHP:1,2019-11-11T18:54:00,28.1530,-82.8010,25.86,11111222 
COMPS,ioos:station:USF.COMPS:FHP:1,2019-11-11T19:54:00,28.1530,-82.8010,23.17,11111222 
COMPS,ioos:station:USF.COMPS:FHP:1,2019-11-11T20:54:00,28.1530,-82.8010,23.38,11111222 
COMPS,ioos:station:USF.COMPS:FHP:1,2019-11-11T21:54:00,28.1530,-82.8010,23.13,11111222 
COMPS,ioos:station:USF.COMPS:FHP:1,2019-11-11T22:54:00,28.1530,-82.8010,22.65,11111222 
COMPS,ioos:station:USF.COMPS:FHP:1,2019-11-11T23:54:00,28.1530,-82.8010,22.59,11111222 
COMPS,ioos:station:USF.COMPS:FHP:1,2019-11-12T00:54:00,28.1530,-82.8010,22.59,11111222 
COMPS,ioos:station:USF.COMPS:FHP:1,2019-11-12T01:54:00,28.1530,-82.8010,22.47,11111222 
COMPS,ioos:station:USF.COMPS:FHP:1,2019-11-12T02:54:00,28.1530,-82.8010,21.9,11111222 
COMPS,ioos:station:USF.COMPS:FHP:1,2019-11-12T03:54:00,28.1530,-82.8010,21.08,11111222 
COMPS,ioos:station:USF.COMPS:FHP:1,2019-11-12T04:54:00,28.1530,-82.8010,20.75,11111222 
COMPS,ioos:station:USF.COMPS:FHP:1,2019-11-12T05:54:00,28.1530,-82.8010,20.57,11111222 
COMPS,ioos:station:USF.COMPS:FHP:1,2019-11-12T06:54:00,28.1530,-82.8010,20.56,11111222 
COMPS,ioos:station:USF.COMPS:FHP:1,2019-11-12T07:54:00,28.1530,-82.8010,20.27,11111222 
COMPS,ioos:station:USF.COMPS:FHP:1,2019-11-12T08:54:00,28.1530,-82.8010,19.88,11111222 
COMPS,ioos:station:USF.COMPS:FHP:1,2019-11-12T09:54:00,28.1530,-82.8010,19.61,11111222 
COMPS,ioos:station:USF.COMPS:FHP:1,2019-11-12T10:54:00,28.1530,-82.8010,19.44,11111222 
COMPS,ioos:station:USF.COMPS:FHP:1,2019-11-12T11:54:00,28.1530,-82.8010,19.43,11111222 
COMPS,ioos:station:USF.COMPS:FHP:1,2019-11-12T12:54:00,28.1530,-82.8010,20.15,11111222 
COMPS,ioos:station:USF.COMPS:FHP:1,2019-11-12T13:54:00,28.1530,-82.8010,21.11,11111222 
COMPS,ioos:station:USF.COMPS:FHP:1,2019-11-12T14:54:00,28.1530,-82.8010,22.13,11111222 
COMPS,ioos:station:USF.COMPS:FHP:1,2019-11-12T15:54:00,28.1530,-82.8010,23.15,11111222 